This is the latest recevied weather packets stored in our database for station/object OE3BCB-14. If no packets are shown the sender has not sent any weather packets the latest 10 day(s).
| Time | Temp. | Humidity | Pressure | Rain* | Wind** | Luminosity | Snow |
|---|---|---|---|---|---|---|---|
| 1777960352 | 17.78° C | 50% | 1011.4 hPa | - | - | 128 W/m² | - |
| 1777960050 | 17.78° C | 50% | 1011.3 hPa | - | - | 106 W/m² | - |
| 1777959747 | 17.22° C | 50% | 1011.4 hPa | - | - | 79 W/m² | - |
| 1777959445 | 16.67° C | 50% | 1011.4 hPa | - | - | 43 W/m² | - |
| 1777959142 | 16.67° C | 50% | 1011.4 hPa | - | - | 40 W/m² | - |
| 1777958840 | 16.11° C | 51% | 1011.3 hPa | - | - | 40 W/m² | - |
| 1777958235 | 15° C | 50% | 1011.3 hPa | - | - | 33 W/m² | - |
| 1777957933 | 15° C | 50% | 1011.3 hPa | - | - | 29 W/m² | - |
| 1777957630 | 14.44° C | 50% | 1011.3 hPa | - | - | 27 W/m² | - |
| 1777957328 | 14.44° C | 50% | 1011.2 hPa | - | - | 24 W/m² | - |
| 1777957025 | 13.89° C | 50% | 1011.2 hPa | - | - | 23 W/m² | - |
| 1777956723 | 14.44° C | 50% | 1011.2 hPa | - | - | 27 W/m² | - |
| 1777956421 | 14.44° C | 50% | 1011.2 hPa | - | - | 29 W/m² | - |
| 1777956118 | 13.89° C | 50% | 1011.1 hPa | - | - | 26 W/m² | - |
| 1777955816 | 13.89° C | 50% | 1011.1 hPa | - | - | 24 W/m² | - |
| 1777955513 | 13.33° C | 50% | 1011.1 hPa | - | - | 20 W/m² | - |
| 1777955211 | 13.33° C | 50% | 1011.1 hPa | - | - | 19 W/m² | - |
| 1777954909 | 12.78° C | 51% | 1011.1 hPa | - | - | 19 W/m² | - |
| 1777954606 | 12.22° C | 50% | 1011.1 hPa | - | - | 15 W/m² | - |
| 1777954304 | 12.22° C | 50% | 1011 hPa | - | - | 12 W/m² | - |
| 1777954002 | 12.78° C | 50% | 1011 hPa | - | - | 10 W/m² | - |
| 1777953699 | 12.78° C | 50% | 1011 hPa | - | - | 7 W/m² | - |
| 1777953397 | 12.78° C | 50% | 1011 hPa | - | - | 5 W/m² | - |
| 1777953094 | 12.22° C | 50% | 1011 hPa | - | - | 4 W/m² | - |
| 1777952792 | 12.22° C | 50% | 1011.1 hPa | - | - | 3 W/m² | - |
* Rain since midnight (hover to see other rain measurements)
** Current wind speed in m/s (hover to see current wind gust speed)